Location: Jefferson
(30.9666°N, 81.7901°W)
Time: 06:30:26
(UTC+00:00)

ARIANE 6 FM1 Upper Stage - Pass Details

Date: 20 September 2024
Orbit: 563 x 595 km, 62.0° (Epoch: 12 October)

Event Time Altitude Azimuth Distance (km) Brightness Sun altitude
Rises 00:31:27 0° 200° (SSW) 2,750 6.3 -14.6°
Reaches altitude 10° 00:33:41 10° 196° (SSW) 1,862 5.4 -15.1°
Maximum altitude 00:37:48 57° 118° (ESE) 680 2.7 -15.9°
Enters shadow 00:41:49 11° 40° (NE) 1,822 5.0 -16.8°
